Content
SEND FEEDBACK

Daily
Averages
Monthly
Summary
United States of America

WAITSBURG, WASHINGTON


Home > North America > United States > Washington
Elevation: 1804 feet     Latitude: 46 18N     Longitude: 117 57W

WEATHER
 
SELECT A DAY
Number of Records: 189,476;   Date Range: 1/1/95 - 12/24/14
 
SHARE

PRINT THIS DATA

[ ← Previous Day ]
WEATHER ALMANAC - JANUARY 23, 2013
[ Next Day → ]
[ °C ]   °F
Weather ElementAverageHighLow
Temperature26.8 °F32 °F (11:32 pm)24.1 °F (3:53 am)
Dewpoint23.8 °F28.4 °F (11:11 pm)21 °F (4:53 am)
Humidity88.3 %93 % (4:33 pm)85 % (2:53 pm)
Barometer30.10 in30.22 in (1:53 am)29.96 in (2:16 pm)
Wind Speed3.8 mph9.2 mph (11:53 pm)
Weather ElementAverage
Visibility6.1 mi
Wind DirectionSSE (167.1 °)

Weather ElementTotal
Precipitation0.27 in
Heating Degree Days37 (Base 65)
Averaged from 31 records on January 23, 2013
WEATHER CONDITIONS BREAKOUT
WIND DIRECTION BREAKOUT
WEATHER BY HOUR - JANUARY 23, 2013
[ °C ]   °F
Local TimeTemperatureDewpointHumidityBarometerVisibilityWind DirectionWind SpeedGust SpeedPrecipitationEventsConditions
1:53 AM25.0 °F21.9 °F88 %30.22 in6.0 miWNW (300°)4.6 mphOvercast
2:53 AM25.0 °F21.9 °F88 %30.21 in8.0 miNW (310°)3.5 mphOvercast
3:53 AM24.1 °F21.9 °F91 %30.20 in7.0 miWest (280°)5.8 mphOvercast
4:53 AM24.1 °F21.0 °F88 %30.17 in8.0 miNNW (340°)3.5 mphOvercast
5:53 AM24.1 °F21.0 °F88 %30.17 in8.0 miWNW (300°)5.8 mphOvercast
6:53 AM24.1 °F21.0 °F88 %30.16 in8.0 miCalmOvercast
7:53 AM24.1 °F21.9 °F91 %30.14 in3.0 miCalmOvercast
8:53 AM24.1 °F21.9 °F91 %30.15 in3.0 miCalmOvercast
9:53 AM24.1 °F21.9 °F91 %30.11 in3.0 miCalmOvercast
10:53 AM25.0 °F21.9 °F88 %30.10 in4.0 miCalmOvercast
11:53 AM25.0 °F21.9 °F88 %30.11 in6.0 miCalmOvercast
12:53 PM25.0 °F23.0 °F92 %30.07 in6.0 miWNW (290°)3.5 mph0.00 inOvercast
1:53 PM26.1 °F23.0 °F88 %30.03 in6.0 miNorth (10°)4.6 mph0.00 inRainLight Freezing Rain
2:16 PM26.6 °F23.0 °F86 %29.96 in8.0 miNorth (350°)5.8 mph0.00 inOvercast
2:53 PM27.0 °F23.0 °F85 %30.00 in10.0 miNW (320°)3.5 mph0.00 inOvercast
3:53 PM26.1 °F23.0 °F88 %30.05 in10.0 miWSW (250°)5.8 mphOvercast
4:33 PM26.6 °F24.8 °F93 %29.99 in7.0 miSouth (190°)4.6 mphOvercast
4:43 PM26.6 °F24.8 °F93 %29.99 in6.0 miSouth (190°)4.6 mph0.00 inOvercast
4:53 PM26.1 °F24.1 °F92 %30.03 in7.0 miSouth (190°)4.6 mph0.00 inOvercast
5:53 PM26.1 °F23.0 °F88 %30.04 in7.0 miSW (220°)4.6 mphOvercast
7:27 PM26.6 °F23.0 °F86 %30.07 in7.0 miSSE (150°)8.1 mphOvercast
7:53 PM27.0 °F23.0 °F85 %30.10 in10.0 miSSE (160°)6.9 mphOvercast
8:53 PM28.0 °F24.1 °F85 %30.12 in7.0 miSSE (160°)4.6 mphOvercast
9:53 PM28.9 °F25.0 °F85 %30.14 in6.0 miSE (130°)3.5 mph0.01 inOvercast
10:25 PM30.2 °F26.6 °F86 %30.10 in4.0 miSSW (210°)3.5 mph0.02 inRainLight Freezing Rain
10:32 PM30.2 °F26.6 °F86 %30.10 in3.0 miCalm0.03 inRainLight Freezing Rain
10:42 PM30.2 °F26.6 °F86 %30.11 in3.0 miCalm0.05 inRainLight Freezing Rain
10:53 PM30.9 °F27.0 °F85 %30.16 in4.0 miENE (70°)3.5 mph0.06 inRainLight Freezing Rain
11:11 PM30.2 °F28.4 °F93 %30.11 in4.0 miSE (130°)6.9 mph0.02 inRainLight Freezing Rain
11:32 PM32.0 °F28.4 °F87 %30.12 in5.0 miNW (310°)5.8 mph0.04 inRainLight Freezing Rain
11:53 PM30.9 °F28.0 °F89 %30.17 in5.0 miNW (320°)9.2 mph0.04 inOvercast
Hourly data recorded from KALW, located miles away from Waitsburg, Washington







STORIES FROM OUR PARTNERS